Retour au catalogue

CZ-6A DEB

ActifSSO
NORAD 55554·DEBRIS·🇨🇳 China

Lancé Nov 11, 2022 depuis Taiyuan Satellite Launch Center

Loading…

Prochains Passages (prochaines 24 heures)

TLE

FraisSource: Space-Track

Époque: Sep 12, 2026, 23:28 UTC

1 55554U 22151ZC  26255.97805314  .00001625  00000-0  83027-3 0  9999
2 55554  98.8228 250.9931 0058448  75.4572 285.3075 14.16126936197287

Suivez CZ-6A DEB en temps réel avec AllMySat

Download on the App Store